Flag for China Weather past 2 weeks in Lanchow, Gansu, China

Now
46 °F

Clear.


Feels Like: 44 °F
Forecast: 42 / 78 °F
Wind: 6 mph from North

Location: Lanzhou / Zhongchuan

Current Time: Sep 3, 2014 at 3:09:23 AM

Latest Report: Sep 3, 2014 at 2:00 AM


Visibility: 10 mi

Pressure: 30.18 "Hg

Humidity: 71%

Dew point: 37 °F

Location of LanchowLocation

Historic Weather in Lanchow — Graph

°F

Lanchow temperature yesterday

Maximum temperature yesterday: 73 °F (at 3:00 PM)
Minimum temperature yesterday: 43 °F (at 5:00 AM)
Average temperature yesterday: 58 °F

Past Weeks' High & Low Weather Summary

 TemperatureHumidityPressure
High81 °F (Aug 19, 3:00 PM)100% (Aug 22, 1:00 AM)30.30 "Hg (Aug 22, 1:00 AM)
Low43 °F (Sep 2, 5:00 AM)20% (Sep 2, 5:00 PM)30.01 "Hg (Aug 28, 5:00 PM)
Average61 °F67%30.13 "Hg
* Reported Aug 19 1:00 AM — Sep 3 1:00 AM, Lanchow, Weather by CustomWeather, © 2014

Note: Actual official high and low records may vary slightly from our data, if they occured in-between our weather recording intervals... More about our weather records

Advertising

Lanchow weather history for previous 24 hours

 ConditionsComfort  
Time TempWeatherWind HumidityBarometerVisibility
1:00 AM
Sep 3
48 °FClear.6 mph66%30.18 "Hg10 mi
12:00 AM50 °FClear.6 mph62%30.18 "Hg10 mi
11:00 PM
Sep 2
50 °FClear.3 mph67%30.18 "Hg10 mi
10:00 PM54 °FPassing clouds.3 mph63%30.18 "HgN/A
9:00 PM61 °FClear.1 mph42%30.18 "Hg10 mi
8:00 PM64 °FSunny.3 mph37%30.15 "Hg10 mi
7:00 PM72 °FSunny.1 mph22%30.15 "Hg10 mi
6:00 PM72 °FPassing clouds.3 mph23%30.18 "HgN/A
5:00 PM73 °FSunny.3 mph20%30.18 "Hg10 mi
4:00 PM72 °FPassing clouds.3 mph22%30.18 "HgN/A
3:00 PM73 °FPassing clouds.6 mph23%30.21 "HgN/A
2:00 PM70 °FPassing clouds.3 mph27%30.24 "HgN/A
1:00 PM70 °FPassing clouds.3 mph29%30.27 "HgN/A
12:00 PM68 °FPassing clouds.1 mph33%30.27 "HgN/A
11:00 AM66 °FPassing clouds.8 mph35%30.30 "HgN/A
10:00 AM63 °FPassing clouds.3 mph42%30.30 "HgN/A
9:00 AM59 °FPassing clouds.1 mph55%30.30 "HgN/A
8:00 AM50 °FPassing clouds.3 mph76%30.30 "Hg5 mi
7:00 AM43 °FPassing clouds.3 mph87%30.27 "HgN/A
6:00 AM43 °FClear.3 mph87%30.24 "Hg10 mi
5:00 AM43 °FClear.6 mph87%30.24 "Hg10 mi
4:00 AM45 °FClear.3 mph87%30.24 "Hg10 mi
3:00 AM45 °FClear.3 mph87%30.24 "Hg10 mi
Weather by CustomWeather, © 2014

See weather overviewHow to use our weather pages